TDRS 5

Last updated on Wed Sep 09 2026 00:02:52 GMT+0000 (Coordinated Universal Time)

1 21639U 91054B 26251.48322211 .00000072 00000+0 00000+0 0 9996 2 21639 14.0617 353.1520 0009322 251.5905 109.2136 1.00277423128553
UTC large
Height (km)
Speed (km/s)
/
Latitude / Longitude
Inclination (degrees)
Orbital Period (minutes)
Azimuth
Elevation
Range (km)
Doppler Factor

Next 0 passes for location: London (51.5072 / 0.1276)

No passes found over London.
TDRS 5